This demonstration page uses our WeatherBlox Daily Observations layout. Learn more.

Left ArrowRight Arrow

Hourly Observations for December 5, 2021

Temp ( °F °C ) Dew Point ( °F °C ) Humidity (%) Winds ( mph kmh ) Pressure ( in mb ) Visibility ( mi km ) Precip ( " mm )
12:56 am 00:56 Cloudy 40 4.4 17 -8.4 39 39 SE 9 15 29.98 1015 10 16 0.00 0.00
1:56 am 01:56 Mostly Cloudy 41 5.1 21 -6.2 44 44 SSE 9 15 29.94 1014 10 16 0.00 0.00
2:56 am 02:56 Cloudy 41 4.9 23 -4.9 49 49 SSE 12 19 29.89 1012 10 16 0.00 0.00
3:56 am 03:56 Mostly Cloudy 41 4.9 26 -3.6 55 55 SSE 15 24 29.83 1010 10 16 0.00 0.00
4:56 am 04:56 Mostly Cloudy 41 5.2 29 -1.9 61 61 SSE 13 20 29.79 1009 10 16 0.00 0.00
5:56 am 05:56 Mostly Clear 42 5.3 30 -1 64 64 S 12 19 29.75 1008 10 16 0.00 0.00
6:56 am 06:56 Mostly Cloudy 42 5.3 31 -0.3 67 67 S 5 7 29.73 1007 10 16 0.00 0.00
7:56 am 07:56 Mostly Cloudy 42 5.4 32 0.2 69 69 SSE 6 9 29.72 1007 10 16 0.00 0.00
8:56 am 08:56 Partly Cloudy 43 6.2 34 0.9 69 69 S 5 7 29.70 1006 10 16 0.00 0.00
9:56 am 09:56 Partly Cloudy 47 8.5 36 2.1 64 64 WSW 10 17 29.70 1006 10 16 0.00 0.00
10:56 am 10:56 Mostly Sunny 48 8.9 35 1.6 61 61 WNW 7 11 29.69 1005 10 16 0.00 0.00
11:56 am 11:56 Partly Cloudy 51 10.3 34 1.1 53 53 NW 14 22 29.68 1005 10 16 0.00 0.00
12:56 pm 12:56 Partly Cloudy 48 9.1 33 0.5 55 55 NNW 13 20 29.68 1005 10 16 0.00 0.00
1:56 pm 13:56 Mostly Cloudy 52 11.1 32 0.2 47 47 NW 13 20 29.70 1006 10 16 0.00 0.00
2:56 pm 14:56 Sunny 53 11.8 29 -1.7 39 39 NNW 16 26 29.72 1007 10 16 0.00 0.00
3:56 pm 15:56 Mostly Sunny 50 10.1 23 -5.1 34 34 NW 21 33 29.79 1009 10 16 0.00 0.00
4:56 pm 16:56 Partly Cloudy 49 9.5 20 -6.4 32 32 NW 23 37 29.83 1010 10 16 0.00 0.00
5:56 pm 17:56 Partly Cloudy 47 8.2 19 -7.5 32 32 NW 10 17 29.86 1011 10 16 0.00 0.00
6:56 pm 18:56 Mostly Cloudy 46 7.6 17 -8.5 31 31 NW 23 37 29.94 1014 10 16 0.00 0.00
7:56 pm 19:56 Clear 39 3.7 16 -8.7 40 40 NW 18 30 30.02 1017 10 16 0.00 0.00
8:56 pm 20:56 Mostly Clear 35 1.9 14 -10 41 41 NW 23 37 30.08 1019 10 16 0.00 0.00
9:56 pm 21:56 Mostly Clear 34 1 12 -11.1 40 40 NW 20 31 30.10 1019 10 16 0.00 0.00
10:56 pm 22:56 Clear 32 0.2 12 -11.2 42 42 NW 20 31 30.13 1020 10 16 0.00 0.00
11:56 pm 23:56 Mostly Clear 32 -0.2 13 -10.4 47 47 NW 17 28 30.15 1021 10 16 0.00 0.00

Powered by AerisWeather